Location: ?
(35.4554°N, 139.3092°E)
Time: 21:52:23
(UTC+00:00)

Meteor 1-21 - Pass Details

Date: 21 April 2021
Orbit: 845 x 887 km, 81.2° (Epoch: 10 May)

Event Time Altitude Azimuth Distance (km) Brightness Sun altitude
Exits shadow 18:29:20 - 182° (S) 2,702 6.5 -18.2°
Reaches altitude 10° 18:29:49 10° 181° (S) 2,517 6.4 -18.1°
Maximum altitude 18:35:32 77° 96° (E) 906 4.4 -17.1°
Drops below altitude 10° 18:41:21 10° 12° (NNE) 2,553 7.2 -16.0°
Sets 18:43:48 0° 11° (N) 3,498 8.0 -15.6°
